Weather History for Lexington, NC

Change the Weather History Date:

Wednesday, May 9, 2012

  Actual Average (KINT) Record (KINT)
Temperature  
Mean Temperature 62 °F -  
Max Temperature 69 °F 74 °F 88 °F (2003)
Min Temperature 53 °F 53 °F 33 °F (1980)
Degree Days  
Heating Degree Days 3    
Growing Degree Days 12 (Base 50)    
Moisture  
Dew Point 62 °F    
Average Humidity 99    
Maximum Humidity 100    
Minimum Humidity 83    
Precipitation  
Precipitation 1.27 in - - ()
Sea Level Pressure  
Sea Level Pressure 29.80 in    
Wind  
Wind Speed 1 mph (WSW)    
Max Wind Speed 7 mph    
Max Gust Speed -    
Visibility 6 miles    
Events Fog , Rain    
Averages and records for this station are not official NWS values.
T = Trace of Precipitation, MM = Missing Value Source: NWS Daily Summary

Daily Weather History Graph

Daily Weather History Graph

Search for Another Location

Airport:

Trip Planner

Search our weather history database for the weather conditions in past years. The results will help you decide how hot, cold, wet, or windy it might be!

Date:

Astronomy

May. 09, 2012 Rise Set
Actual Time 6:20 AM EDT 8:15 PM EDT
Civil Twilight 5:52 AM EDT 8:43 PM EDT
Nautical Twilight 5:18 AM EDT 9:17 PM EDT
Astronomical Twilight 4:42 AM EDT 9:53 PM EDT
Moon No Moon Rise 9:36 AM EDT (5/9)
Length of Visible Light 14h 50m
Length of Day
13h 54m
Waning Gibbous, 83% of the Moon is Illuminated
May 9
Waning Gibbous
May 12
Last Quarter
May 20
New
May 28
First Quarter
Jun 4
Full

Hourly Weather History & Observations

Time (EDT) Temp. Dew Point Humidity Pressure Visibility Wind Dir Wind Speed Gust Speed Precip Events Conditions
12:15 AM 64.4 °F 64.4 °F 100% 29.90 in 5.0 mi Calm Calm - N/A   Scattered Clouds
12:35 AM 64.4 °F 64.4 °F 100% 29.90 in 5.0 mi Calm Calm - N/A   Mostly Cloudy
12:55 AM 64.4 °F 64.4 °F 100% 29.89 in 7.0 mi Calm Calm - N/A Rain Rain
1:15 AM 64.4 °F 64.4 °F 100% 29.89 in 3.0 mi SSW 3.5 mph - 0.13 in Rain Heavy Rain
1:35 AM 64.4 °F 64.4 °F 100% 29.88 in 3.0 mi WSW 3.5 mph - 0.24 in Rain Heavy Rain
1:55 AM 64.4 °F 64.4 °F 100% 29.88 in 1.0 mi SSW 3.5 mph - 0.69 in Rain Heavy Rain
2:15 AM 64.4 °F 64.4 °F 100% 29.88 in 2.5 mi SW 4.6 mph - 0.21 in Rain Heavy Rain
2:35 AM 62.6 °F 62.6 °F 100% 29.87 in 5.0 mi Calm Calm - 0.28 in Rain Rain
2:55 AM 62.6 °F 62.6 °F 100% 29.87 in 5.0 mi Calm Calm - 0.32 in Rain Light Rain
3:15 AM 62.6 °F 62.6 °F 100% 29.87 in 5.0 mi Calm Calm - 0.01 in Rain Light Rain
3:35 AM 62.6 °F 62.6 °F 100% 29.86 in 4.0 mi Calm Calm - 0.02 in Rain Light Rain
3:55 AM 62.6 °F 62.6 °F 100% 29.85 in 4.0 mi Calm Calm - 0.04 in Rain Rain
4:15 AM 62.6 °F 62.6 °F 100% 29.84 in 4.0 mi Calm Calm - N/A   Clear
4:35 AM 62.6 °F 62.6 °F 100% 29.84 in 2.5 mi Calm Calm - N/A   Clear
4:55 AM 62.6 °F 62.6 °F 100% 29.84 in 2.5 mi South 3.5 mph - N/A   Scattered Clouds
5:15 AM 62.6 °F 62.6 °F 100% 29.84 in 2.5 mi Calm Calm - N/A   Mostly Cloudy
5:35 AM 62.6 °F 62.6 °F 100% 29.84 in 3.0 mi Calm Calm - N/A   Scattered Clouds
5:55 AM 60.8 °F 60.8 °F 100% 29.84 in 3.0 mi Calm Calm - N/A   Clear
6:15 AM 60.8 °F 60.8 °F 100% 29.84 in 3.0 mi Calm Calm - N/A   Clear
6:35 AM 60.8 °F 60.8 °F 100% 29.83 in 1.8 mi Calm Calm - N/A   Mostly Cloudy
6:55 AM 60.8 °F 60.8 °F 100% 29.84 in 0.2 mi Calm Calm - N/A Fog Fog
7:15 AM 60.8 °F 60.8 °F 100% 29.84 in 0.5 mi Calm Calm - N/A Fog Fog
7:35 AM 62.6 °F 62.6 °F 100% 29.84 in 0.5 mi Calm Calm - N/A Fog Fog
8:15 AM 62.6 °F 62.6 °F 100% 29.84 in 1.2 mi Calm Calm - N/A   Overcast
8:35 AM 64.4 °F 64.4 °F 100% 29.84 in 3.0 mi Calm Calm - N/A   Overcast
8:55 AM 64.4 °F 64.4 °F 100% 29.84 in 5.0 mi Calm Calm - N/A   Overcast
9:15 AM 64.4 °F 64.4 °F 100% 29.83 in 5.0 mi Calm Calm - N/A   Overcast
9:35 AM 64.4 °F 64.4 °F 100% 29.83 in 7.0 mi Calm Calm - N/A   Overcast
9:55 AM 66.2 °F 66.2 °F 100% 29.82 in 10.0 mi Calm Calm - N/A   Overcast
10:15 AM 66.2 °F 66.2 °F 100% 29.82 in 10.0 mi Calm Calm - N/A   Overcast
10:35 AM 68.0 °F 66.2 °F 94% 29.82 in 10.0 mi Calm Calm - N/A   Mostly Cloudy
10:55 AM 68.0 °F 66.2 °F 94% 29.82 in 10.0 mi Calm Calm - N/A   Overcast
11:15 AM 68.0 °F 68.0 °F 100% 29.82 in 10.0 mi Calm Calm - N/A   Mostly Cloudy
11:35 AM 69.8 °F 64.4 °F 83% 29.81 in 10.0 mi Calm Calm - N/A   Mostly Cloudy
11:55 AM 68.0 °F 66.2 °F 94% 29.81 in 10.0 mi South 3.5 mph - N/A   Mostly Cloudy
12:15 PM 68.0 °F 64.4 °F 88% 29.80 in 10.0 mi Calm Calm - N/A   Mostly Cloudy
12:35 PM 68.0 °F 66.2 °F 94% 29.78 in 10.0 mi Calm Calm - N/A   Mostly Cloudy
12:55 PM 69.8 °F 66.2 °F 88% 29.77 in 10.0 mi SE 3.5 mph - N/A   Mostly Cloudy
1:15 PM 69.8 °F 66.2 °F 88% 29.76 in 10.0 mi SE 3.5 mph - N/A   Mostly Cloudy
1:35 PM 68.0 °F 68.0 °F 100% 29.74 in 10.0 mi Calm Calm - N/A   Mostly Cloudy
1:55 PM 68.0 °F 68.0 °F 100% 29.74 in 7.0 mi South 3.5 mph - 0.01 in Rain Rain
2:15 PM 66.2 °F 66.2 °F 100% 29.78 in 2.0 mi WSW 5.8 mph - 0.12 in Rain Heavy Rain
2:35 PM 60.8 °F 60.8 °F 100% 29.78 in 3.0 mi NW 4.6 mph - 0.18 in Rain Rain
2:55 PM 60.8 °F 60.8 °F 100% 29.78 in 10.0 mi NNW 4.6 mph - 0.19 in Rain Light Rain
3:15 PM 60.8 °F 60.8 °F 100% 29.76 in 10.0 mi NNW 4.6 mph - N/A Rain Rain
3:35 PM 60.8 °F 60.8 °F 100% 29.75 in 7.0 mi NNW 3.5 mph - 0.01 in Rain Rain
3:55 PM 60.8 °F 60.8 °F 100% 29.74 in 10.0 mi Calm Calm - 0.02 in Rain Light Rain
4:35 PM 60.8 °F 60.8 °F 100% 29.73 in 10.0 mi NNE 3.5 mph - N/A Rain Light Rain
4:55 PM 60.8 °F 60.8 °F 100% 29.72 in 10.0 mi NNE 4.6 mph - N/A   Scattered Clouds
5:15 PM 62.6 °F 62.6 °F 100% 29.72 in 10.0 mi North 6.9 mph - N/A   Scattered Clouds
5:35 PM 60.8 °F 60.8 °F 100% 29.72 in 10.0 mi Calm Calm - N/A   Scattered Clouds
5:55 PM 60.8 °F 60.8 °F 100% 29.73 in 10.0 mi Calm Calm - N/A   Scattered Clouds
6:15 PM 60.8 °F 60.8 °F 100% 29.73 in 10.0 mi NE 3.5 mph - N/A   Clear
6:35 PM 60.8 °F 60.8 °F 100% 29.74 in 10.0 mi Calm Calm - N/A   Clear
6:55 PM 60.8 °F 60.8 °F 100% 29.73 in 7.0 mi Calm Calm - N/A   Light Drizzle
7:15 PM 60.8 °F 60.8 °F 100% 29.72 in 7.0 mi Calm Calm - N/A   Scattered Clouds
7:35 PM 60.8 °F 60.8 °F 100% 29.72 in 5.0 mi Calm Calm - N/A   Scattered Clouds
7:55 PM 60.8 °F 60.8 °F 100% 29.73 in 2.5 mi Calm Calm - N/A   Drizzle
8:15 PM 60.8 °F 60.8 °F 100% 29.75 in 4.0 mi Calm Calm - N/A   Clear
8:35 PM 60.8 °F 60.8 °F 100% 29.75 in 7.0 mi Calm Calm - N/A   Clear
8:55 PM 59.0 °F 59.0 °F 100% 29.75 in 7.0 mi Calm Calm - N/A   Clear
9:15 PM 59.0 °F 59.0 °F 100% 29.75 in 10.0 mi Calm Calm - N/A   Clear
9:35 PM 59.0 °F 59.0 °F 100% 29.76 in 7.0 mi Calm Calm - N/A   Clear
9:55 PM 59.0 °F 59.0 °F 100% 29.78 in 7.0 mi Calm Calm - N/A   Clear
10:15 PM 55.4 °F 55.4 °F 100% 29.78 in 5.0 mi Calm Calm - N/A   Clear
10:35 PM 55.4 °F 55.4 °F 100% 29.78 in 7.0 mi Calm Calm - N/A   Clear
10:55 PM 55.4 °F 55.4 °F 100% 29.78 in 7.0 mi Calm Calm - N/A   Clear
11:15 PM 55.4 °F 55.4 °F 100% 29.78 in 5.0 mi Calm Calm - N/A   Clear
11:35 PM 55.4 °F 55.4 °F 100% 29.78 in 5.0 mi Calm Calm - N/A   Clear
11:55 PM 53.6 °F 53.6 °F 100% 29.78 in 10.0 mi Calm Calm - N/A   Clear